Printer-friendly version

IAU Minor Planet Center

Minor Planet Center

MPEC 2005-V88 : COMET P/2005 R1 (NEAT)

The following Minor Planet Electronic Circular may be linked-to from your own Web pages, but must not otherwise be redistributed electronically.


Read MPEC 2005-V87 Read MPEC 2005-V89


M.P.E.C. 2005-V88                                Issued 2005 Nov. 14, 20:27 UT

     The Minor Planet Electronic Circulars contain information on unusual
         minor planets and routine data on comets.  They are published
   on behalf of Commission 20 of the International Astronomical Union by the
          Minor Planet Center, Smithsonian Astrophysical Observatory,
                          Cambridge, MA 02138, U.S.A.

                  Supported in part by the Brinson Foundation
                  Supported in part by the TABASGO Foundation
             Prepared using the Tamkin Foundation Computer Network

                              MPC@CFA.HARVARD.EDU
          URL http://cfa-www.harvard.edu/iau/mpc.html  ISSN 1523-6714

                            COMET P/2005 R1 (NEAT)

Observations:
    PK05R010  C2005 07 05.36434 23 52 14.52 +19 01 25.2          19.4 N EV088703
    PK05R010  C2005 07 05.37353 23 52 15.13 +19 01 33.7          19.6 N EV088703
    PK05R010  C2005 07 05.38266 23 52 15.99 +19 01 41.3          18.8 N EV088703
    PK05R010  C2005 07 05.39186 23 52 16.53 +19 01 52.8          19.2 N EV088703
    PK05R010  C2005 10 12.81924 00 30 53.07 +31 06 40.8          17.5 T EV088152
    PK05R010  C2005 10 12.82088 00 30 53.04 +31 06 40.0          17.5 T EV088152
    PK05R010  C2005 10 12.82359 00 30 52.98 +31 06 38.5          17.2 T EV088152
    PK05R010  C2005 10 12.82709 00 30 52.93 +31 06 36.8          17.4 T EV088152
    PK05R010  C2005 10 12.82953 00 30 52.92 +31 06 35.4          17.6 T EV088152
    PK05R010  C2005 11 05.58758 00 31 02.99 +26 35 18.1                 EV088349
    PK05R010  C2005 11 05.59205 00 31 03.06 +26 35 14.5                 EV088349
    PK05R010  C2005 11 05.59649 00 31 03.11 +26 35 11.2          17.0 T EV088349
    PK05R010  C2005 11 08.21280 00 31 55.41 +26 02 11.8          18.1 T EV088704
    PK05R010  C2005 11 08.22534 00 31 55.65 +26 02 02.1          18.2 T EV088704
    PK05R010  C2005 11 08.23773 00 31 55.92 +26 01 52.2          18.3 T EV088704
    PK05R010  C2005 11 08.25013 00 31 56.12 +26 01 43.2          18.5 T EV088704
    PK05R010  C2005 11 08.26253 00 31 56.38 +26 01 34.0          18.6 T EV088704
    PK05R010  C2005 11 08.55934 00 32 03.11 +25 57 50.1                 EV088D88
    PK05R010  C2005 11 08.56253 00 32 03.18 +25 57 47.2                 EV088D88
    PK05R010  C2005 11 08.56573 00 32 03.22 +25 57 44.5          16.9 T EV088D88

Observer details:
152 Moletai Astronomical Observatory.  Observers K. Cernis, J. Zdanavicius.
    Measurer K. Cernis.  1.65-m f/3.1 reflector + CCD.
349 Ageo.  Observer K. Kadota.  0.25-m f/5.0 reflector + CCD.
703 Catalina Sky Survey.  Observer A. Odell.  Measurers E. C. Beshore,
    C. M. Casey, E. J. Christensen, G. J. Garradd, A. D. Grauer, R. E. Hill,
    S. M. Larson, R. H. McNaught.  0.68-m Schmidt + CCD.
704 Lincoln Laboratory ETS, New Mexico.  Observers M. Bezpalko, L. Manguso,
    D. Torres, R. Kracke, A. Milner, H. Love.  Measurers J. Stuart, R. Sayer,
    J. Evans, J. Kommers.  1.0-m f/2.15 reflector + CCD.
D88 Hiratsuka.  Observer Y. Sugiyama.  0.25-m f/5.0 reflector + CCD.

Orbital elements:
    P/2005 R1 (NEAT)
Epoch 2005 Sept. 27.0 TT = JDT 2453640.5
T 2005 Oct. 8.41415 TT                                  MPC
q   2.0470774            (2000.0)            P               Q
n   0.07633770     Peri.  117.95307     +0.92508930     -0.27615700
a   5.5035552      Node   259.06498     +0.18075506     +0.92388232
e   0.6280445      Incl.   15.39590     +0.33397215     +0.26491275
P  12.91
Residuals in seconds of arc
050705 703  1.2-  0.5+    050922 213  0.1-  0.1+    051015 504  0.3-  0.7-
050705 703  1.8-  0.2+    050922 213  0.0   0.1+    051015 504  1.5-  1.0-
050705 703  1.2+  0.9-    050923 A32  0.1-  0.3-    051018 118  0.1+  0.1-
050705 703  0.3-  1.8+    050923 A32  0.2-  0.1-    051018 118  0.2-  0.1-
050902 644  0.2+  0.2+    050923 A32  0.3-  0.5-    051019 J97  0.4-  0.3+
050902 644  0.3+  0.0     050923 048  1.1-  1.3-    051020 673  0.4+  0.7+
050902 644  0.0   0.3+    050923 048  0.8-  1.3-    051020 673  0.3+  0.7+
050904 118  0.0   0.6-    050923 048  1.0-  1.0-    051020 673  0.4+  0.7+
050904 118  0.1-  0.5-    050923 048  1.5-  0.6-    051020 213  0.3-  0.6+
050904 A74  0.1-  0.9-    050924 A32  0.4-  0.3-    051020 213  0.0   0.5+
050904 A74  0.2+  0.1-    050924 A32  0.6-  1.0-    051020 213  0.1-  0.9+
050904 151  0.5-  0.4-    050924 A32  0.3-  0.3-    051021 673  0.1+  0.6+
050904 151  0.2-  0.1+    050924 048  0.5+  0.2-    051021 673  0.0   0.6+
050904 151  0.3-  0.1-    050924 048  0.1+  0.1+    051021 673  0.0   0.6+
050904 151  0.2-  0.0     050924 048  0.5+  0.8+    051021 673  0.1-  0.6+
050904 A74  0.2+  0.4-    050924 048  0.5-  1.0+    051021 213  0.2+  0.2+
050905 446  0.2-  0.8-    050924 048  0.1-  0.8+    051021 213  0.2+  0.7+
050905 446  0.8-  1.1-    050924 A32  0.0   0.0     051021 213  0.2+  0.8+
050905 673  0.4+  0.8+    050925 A32  0.2+  0.2+    051022 232  0.6-  0.2-
050905 446  0.0   0.3-    050925 215  0.1+  0.1+    051022 232  0.5-  0.1-
050905 673  0.4+  0.6+    050925 215  0.2+  0.2-    051022 232  0.4-  0.4-
050905 673  0.5+  0.6+    050926 372  1.7+  1.3+    051022 I05  0.1-  0.6+
050905 673  0.5+  0.7+    050926 372  0.2-  0.2+    051023 349  0.2+  0.1-
050905 A74  0.1+  0.7-    050928 673  0.7+  0.6+    051023 349  0.1+  0.1-
050905 A74  0.2+  0.6-    050928 673  0.6+  0.6+    051023 349  0.4+  0.2-
050905 595  0.3+  0.5+    050928 673  0.6+  0.6+    051024 J97  0.1-  0.5-
050905 A80  0.3+  0.2+    050928 673  0.6+  0.6+    051025 703 (0.5-  2.9-)
050905 A80  0.1-  0.2+    050930 349  0.1-  0.4-    051025 703 (0.2-  2.3-)
050905 A74  0.7-  0.5-    050930 349  0.0   0.2-    051025 703 (0.9-  2.7-)
050905 595  1.0+  1.9-    050930 349  0.2-  0.3-    051025 703 (0.5-  2.1-)
050905 A80  0.6+  1.1-    050930 232  0.2-  0.8-    051026 215  0.3-  0.0
050905 595  1.3+  0.7-    050930 232  0.3-  0.7-    051026 215  0.0   0.2+
050906 048  0.2+  0.1+    051001 355  0.3+  0.9+    051026 215  0.1-  0.2+
050906 048  0.5+  0.5-    051001 355  0.1+  1.5+    051027 D70  0.1-  1.0+
050906 048  0.2+  0.9+    051001 355  0.5+  1.9+    051027 D70  0.6+  0.4+
050906 048  0.3+  1.2+    051001 355  0.1-  0.6+    051027 D70  1.4+  1.1+
050906 048  0.6+  0.6+    051001 349  0.0   0.1-    051028 A32  0.1-  0.3-
050906 130  0.6-  0.8-    051001 349  0.1+  0.3+    051028 A32  0.1-  0.6-
050906 130  0.2+  0.4-    051001 349  0.0   0.2+    051028 A32  0.0   0.5-
050906 130  0.4-  0.1-    051001 J97  0.4+  0.8-    051029 A32  0.2-  0.2+
050906 130  0.2-  0.2-    051001 939  0.3-  0.3-    051029 703 (1.7-  2.3-)
050906 130  0.1+  0.2+    051001 939  0.2-  0.1-    051029 703  1.5-  0.6-
050906 130  0.2-  0.2-    051001 939  0.3-  0.1+    051029 703  0.0   0.5-
050906 048  0.5-  0.8+    051002 J97  0.3-  0.5-    051029 703  0.2+  1.1-
050906 048  1.0+  0.6-    051003 A32  0.2-  0.4-    051031 170  0.2-  0.3+
050906 048  0.5+  0.7-    051003 A32  0.1-  0.2-    051031 170  0.2+  0.0
050907 372  1.0-  1.2+    051003 A32  0.0   0.2-    051031 939  0.3-  0.6-
050908 673  0.4+  0.7+    051004 118  0.3+  0.1+    051031 939  0.1+  0.5-
050908 673  0.3+  0.8+    051004 118  0.5+  0.3-    051101 939  0.5+  0.3-
050908 673  0.2+  0.8+    051004 118  0.0   0.0     051101 A32  0.0   0.1-
050908 673  0.4+  0.7+    051004 118  0.2+  0.0     051101 A32  0.1-  0.3-
050909 850  0.4+  0.7+    051004 561  0.1-  0.2+    051101 A32  0.1-  0.4-
050909 850  0.7-  0.4-    051004 561  0.8+  0.2+    051101 A32  0.6+  0.3-
050909 850  0.6-  0.7-    051004 561  0.2+  0.4+    051101 649  0.0   0.0
050909 850  0.1-  0.9-    051005 850  0.0   0.3-    051101 649  0.0   0.0
050909 D83  0.9+  0.3-    051005 850  0.2-  0.2-    051101 649  0.1+  0.0
050909 213  0.0   1.0+    051005 850  0.2-  0.2-    051101 213  0.1-  0.4+
050909 213  0.5-  0.1+    051006 A32  0.1+  1.2-    051101 213  0.1-  0.4+
050909 213  0.2+  0.5+    051006 A32  0.1+  0.5-    051101 213  0.1-  0.1+
050909 213  0.1-  0.6-    051006 A32  0.4+  0.4-    051101 J97  0.1+  0.0
050909 442  0.6-  0.3+    051007 A33  0.1-  0.3+    051102 A30  0.1+  0.1+
050910 349  0.4-  0.6+    051007 232  0.3-  0.3+    051102 A30  0.2+  0.1+
050910 349  0.3-  0.3+    051007 A33  0.3+  0.1+    051102 A30  0.2+  0.1+
050910 349  0.3-  0.7+    051007 232  0.1-  0.3+    051102 A30  0.3+  0.0
050910 232  0.3-  0.1+    051007 232  0.2+  0.1+    051104 703 (0.8+  2.2-)
050910 232  0.3+  0.1-    051008 A33  0.1+  0.1-    051104 703 (0.2+  2.2-)
050910 232  0.5+  0.2-    051008 A33  0.2+  0.0     051104 703 (0.7-  2.6-)
050910 213  0.3+  0.8+    051011 699  1.0-  0.7-    051104 703 (0.3+  2.4-)
050910 213  0.2+  0.3+    051011 699 (2.2-  2.5-)   051104 D88  0.0   0.3-
050910 213  0.0   0.3+    051011 699  0.5-  1.3-    051104 D88  0.1+  0.6-
050910 A10  1.1-  1.1+    051011 699  0.5-  1.3-    051104 D88  0.5+  1.1-
050912 349  0.3-  1.2+    051011 152  0.7-  0.4-    051105 A01  0.7-  0.1+
050912 349  0.8-  0.6+    051011 152  0.7-  0.3-    051105 232  0.4-  0.7-
050912 372 (0.7-  2.1+)   051011 152  0.6-  0.4-    051105 A01  0.4+  0.3+
050912 372  0.4+  1.7+    051012 152  0.9-  0.1+    051105 232  0.3-  0.1-
050912 204  0.2-  0.0     051012 152  1.0-  0.2+    051105 A01  1.1+  0.3-
050912 204  0.1-  0.0     051012 152  1.2-  0.1+    051105 232  0.7-  0.1+
050914 213  0.2-  0.2-    051012 152  1.2-  0.3+    051105 349  0.4+  0.1+
050914 213  0.5+  0.1+    051012 152  0.9-  0.1+    051105 349  0.5+  0.1-
050914 213  0.1+  0.1+    051012 J97  1.1-  0.7-    051105 349  0.2+  0.0
050916 349  0.2+  0.3-    051012 147  0.1+  0.1+    051105 442  0.3-  1.0+
050916 349  0.5+  0.3-    051012 147  0.0   0.2+    051106 A01  0.6+  0.2-
050916 349  0.6+  0.2-    051014 704  0.6+  0.7+    051106 A01  0.1+  0.1-
050918 118  0.3+  0.1+    051014 704  1.2+  0.4+    051106 A01  0.1+  0.7-
050918 118  0.4+  0.2-    051014 704  0.6+  0.2+    051107 442  0.3-  1.0+
050918 118  0.1-  0.2+    051014 704  0.3+  0.2-    051108 704  0.2-  0.8+
050921 048  1.8+  0.5+    051014 704 (0.2-  2.1-)   051108 704  0.3-  0.6+
050921 048  1.7+  0.0     051015 699  0.2+  0.9-    051108 704  0.1+  0.1+
050921 048  1.1+  0.4+    051015 699  0.2-  0.8-    051108 704  0.4-  0.5+
050921 048  0.1+  1.1+    051015 699  0.2-  0.0     051108 704  0.2-  0.7+
050921 048  0.2+  0.6+    051015 699  0.8+  1.0+    051108 D88  0.1-  0.6+
050922 048  1.5+  0.9+    051015 J97  0.3-  0.1+    051108 D88  0.0   0.1+
050922 048  1.2+  1.3+    051015 504  0.3+  0.2+    051108 D88  0.3-  0.2-
050922 048  0.9+  1.2+    051015 504  0.6+  0.3-    051108 442  0.1+  1.9+
050922 048  0.1-  1.3+    051015 504  0.3+  0.5-

Brian G. Marsden             (C) Copyright 2005 MPC           M.P.E.C. 2005-V88

Read MPEC 2005-V87 Read MPEC 2005-V89


Our Web policy. Index to the CBAT/MPC/ICQ pages.


Valid HTML 4.01!